#timestamp,LO_Frequency,Hit,StdDev 
1635555615.9,286047003.4,N
1635555635.7,286047003.2,Y
1635555655.6,286047000.1,P
1635555675.4,286046999.7,N
1635555695.2,286047002.4,N
1635555715.1,286047002.7,N
1635555716.0,286047002.7,N
1635555735.8,286047001.0,N
1635555755.7,286047001.0,N
1635555775.5,286047000.7,N
1635555795.3,286047000.7,N
1635555815.2,286047000.1,N
1635555835.0,286047000.0,N
1635555835.9,286047000.0,N
1635555855.8,286047000.4,N
1635555875.6,286047000.9,N
1635555895.4,286047000.3,N
1635555915.3,286047002.8,N
1635555935.1,286047000.2,N
1635555955.8,286047002.6,N
1635555975.7,286047002.1,N
1635555995.5,286046999.7,N
1635556015.4,286047000.4,N
1635556035.2,286047000.2,N
1635556055.0,286047002.6,N
1635556055.9,286047002.6,N
1635556075.8,286047000.5,N
1635556095.6,286047000.1,N
1635556115.4,286047000.5,N
1635556135.3,286047000.0,N
1635556155.1,286047000.0,N
1635556175.9,286047002.3,N
1635556195.7,286047000.1,N
1635556215.5,286047001.0,N
1635556235.4,286046998.4,N
1635556255.2,286046999.3,N
1635556275.1,286046998.8,N
1635556276.0,286046998.8,N
1635556295.8,286046998.2,N
1635556315.6,286046998.7,N
1635556335.5,286046998.4,N
1635556355.3,286047001.1,N
1635556375.1,286047001.1,N
1635556395.9,286047000.2,N
1635556415.7,286047000.5,N
1635556435.6,286047001.2,N
1635556455.4,286047000.0,N
1635556475.2,286047000.3,N
1635556495.1,286046999.7,N
1635556496.0,286046999.7,N
1635556515.8,286047000.1,N
1635556535.7,286047002.0,N
1635556555.5,286047002.2,N
1635556575.3,286047002.2,N
1635556595.2,286047004.4,Y
1635556615.0,286047001.7,P
1635556615.9,286047001.7,N
1635556635.7,286047003.4,P
1635556655.6,286047001.7,N
1635556675.4,286047001.5,N
1635556695.3,286047002.0,N
1635556715.1,286047004.3,Y
1635556716.0,286047004.3,P
1635556735.8,286047000.6,N
1635556755.7,286047000.5,N
1635556775.5,286047000.6,N
1635556795.3,286046998.5,N
1635556815.2,286046998.4,N
1635556835.0,286046998.2,N
1635556835.9,286046998.2,N
1635556855.8,286047000.7,N
1635556875.6,286047001.1,N
1635556895.4,286047000.6,N
1635556915.3,286047000.0,N
1635556935.1,286046999.0,N
1635556955.9,286046997.8,N
1635556975.7,286046999.6,N
1635556995.5,286046999.1,N
1635557015.4,286046997.3,N
1635557035.2,286046997.9,N
1635557055.0,286046999.5,N
1635557055.9,286046999.5,N
1635557075.8,286046999.1,N
1635557095.6,286046998.7,N
1635557115.4,286046998.5,N
1635557135.3,286046998.1,N
1635557155.1,286046999.4,N
1635557175.9,286047001.0,N
1635557195.7,286047000.3,N
1635557215.5,286046999.8,N
1635557235.4,286046999.8,N
1635557255.2,286046999.9,N
1635557275.1,286047002.5,N
1635557276.0,286047002.5,N
1635557295.8,286046999.8,N
1635557315.6,286047000.5,N
1635557335.5,286047000.8,N
1635557355.3,286047000.5,N
1635557375.2,286047000.5,N
1635557395.9,286047000.0,N
1635557415.7,286047002.6,N
1635557435.6,286047002.2,N
1635557455.4,286047002.7,N
1635557475.2,286046999.9,N
1635557495.1,286047000.7,N
1635557496.0,286047000.7,N
1635557515.8,286047000.3,N
1635557535.7,286047002.3,N
1635557555.5,286047002.5,N
1635557575.3,286047002.2,N
1635557595.2,286047002.6,N
1635557615.1,286047002.5,N
1635557616.0,286047002.5,N
1635557635.8,286047002.2,N
1635557655.7,286047002.2,N
1635557675.5,286047001.5,N
1635557695.3,286047001.9,N
1635557715.2,286047001.8,N
1635557735.0,286047002.4,N
1635557735.9,286047002.4,N
1635557755.8,286047002.4,N
1635557775.6,286047002.1,N
1635557795.4,286047001.8,N
1635557815.3,286047002.3,N
1635557835.1,286047002.7,N
1635557855.8,286047002.0,N
1635557875.7,286047002.5,N
1635557895.5,286047002.5,N
1635557915.4,286047001.8,N
1635557935.2,286047002.5,Y
1635557955.0,286047000.4,P
1635557955.9,286047000.4,N
1635557975.8,286047000.8,N
1635557995.7,286046998.1,Y
1635558015.5,286046999.1,P
1635558035.4,286046996.7,P
1635558055.2,286046997.1,N
1635558075.0,286046997.7,N
1635558075.9,286046997.7,N
1635558095.8,286046996.9,N
1635558115.6,286046997.9,N
1635558135.4,286046996.6,N
1635558155.3,286046999.0,N
1635558175.1,286046998.9,N
1635558195.9,286046998.3,N
1635558215.7,286046999.4,N
1635558235.5,286046998.5,N
1635558255.4,286046998.3,N
1635558275.2,286047000.8,N
1635558295.0,286047000.6,N
1635558295.9,286047000.6,N
1635558315.8,286047001.2,N
1635558335.6,286047000.6,N
1635558355.5,286047000.0,N
1635558375.3,286046999.8,N
1635558395.1,286046999.9,N
1635558415.9,286047000.4,N
1635558435.7,286047000.4,N
1635558455.5,286047000.6,N
1635558475.4,286046999.7,N
1635558495.2,286047001.1,N
1635558515.1,286046998.4,N
1635558516.0,286046998.4,N
1635558535.8,286046998.3,N
1635558555.6,286046998.1,N
1635558575.5,286046998.5,N
1635558595.3,286046998.8,N
1635558615.1,286047000.0,N
1635558635.9,286046999.9,N
1635558655.7,286047000.8,N
1635558675.6,286047000.5,N
1635558695.4,286046998.3,N
1635558715.2,286046999.0,N
1635558735.1,286046998.8,N
1635558736.0,286046998.8,N
1635558755.8,286046999.6,N
1635558775.7,286046996.8,Y
1635558795.5,286046999.0,P
1635558815.3,286046998.3,P
1635558835.2,286047000.6,N
1635558855.0,286047000.4,N
1635558855.9,286047000.4,N
1635558875.7,286047000.9,N
1635558895.6,286046998.2,N
1635558915.4,286046998.9,N
1635558935.3,286046999.2,N
1635558955.1,286046998.3,N
1635558956.0,286046998.3,N
1635558975.8,286046999.4,N
1635558995.7,286046999.2,N
1635559015.5,286046999.3,N
1635559035.4,286046997.0,Y
1635559055.2,286046998.2,P
1635559075.0,286046998.5,N
1635559075.9,286046998.5,P
1635559095.8,286046998.3,Y
1635559115.6,286047000.0,P
1635559135.4,286047002.6,P
1635559155.3,286047002.7,N
1635559175.1,286047002.4,N
1635559195.9,286046999.8,N
